Starlink 33916

operational
NORAD ID: 63792 Int'l Des: 2025-091 Owner: SPXS Country: US Constellation: starlink
LEOCIRCULAR

About Starlink 33916

Description loading...

Live Position

Loading 3D Globe...

Upcoming Passes

Altitude History

Altitude vs Time

uPlot chart will show altitude changes over time

Two-Line Element Set

1 63792U 25091T 25351.20206087 .00013191 00000-0 48765-3 0 9993
2 63792 42.9996 158.6439 0002289 264.5210 95.5381 15.27604059 36284
Epoch: Dec 17, 2025 • Age: 9 hours

Current Status

Altitude 488.6 km
Velocity 7.62 km/s
Sub-Earth Point -26.20°S, 172.99°W
Launch Date May 2, 2025
Age 0.6 years
Type internet

Technical Details

Classification Payload
Mass 575.00 kg
Dry Mass 530.00 kg
Total Mass 575.00 kg
Length 0.30 m
Diameter 4.10 m
Span 29.00 m
Shape Box + pan
Manufacturer SPXS
Bus Type Starlink V2MO
Phase Status In Orbit
Owner/State SPXS/US

Large Constellations

Loading constellations...